Location: Newark
(33.6333°S, 78.8500°W)
Time: 07:24:26
(UTC+00:00)

Courier 1B - Pass Details

Date: 24 September 2019
Orbit: 962 x 1209 km, 28.3° (Epoch: 15 October)

Event Time Altitude Azimuth Distance (km) Brightness Sun altitude
Rises 00:25:33 0° 274° (W) 4,033 12.2 -15.9°
Reaches altitude 10° 00:28:29 10° 278° (W) 3,039 11.2 -16.5°
Maximum altitude 00:35:46 56° 354° (N) 1,292 8.1 -18.0°
Enters shadow 00:39:29 28° 59° (ENE) 1,891 8.5 -18.8°
Drops below altitude 10° 00:42:35 10° 70° (ENE) 2,854 - -19.4°
Sets 00:45:16 0° 74° (ENE) 3,771 - -19.9°
